Regional Weather Roundup
Issued by NWS

Home | Current Version | Previous Version | Text Only | Print | Product List | Glossary On
Versions: 1 2 3 4 5 6 7 8 9 10 11 12 13 14 15 16 17 18 19 20 21 22 23 24 25 26 27 28 29 30 31 32 33 34 35 36 37 38 39 40 41 42 43 44 45 46 47 48 49 50
000
ASUS45 KABQ 220501
RWRNM
NEW MEXICO REGIONAL WEATHER ROUNDUP
NATIONAL WEATHER SERVICE ALBUQUERQUE NM
1100 PM MDT THU SEP 21 2017

NOTE: "FAIR" MEANS FEW OR NO CLOUDS BELOW 12,000 FEET AGL WITH NO
       SIGNIFICANT WEATHER OR OBSTRUCTIONS TO VISION.

      THIS PRODUCT IS RELEASED AS TWO VERSIONS.  ONE VERSION NEAR
      THE TOP OF THE HOUR CONTAINING PRELIMINARY DATA FROM ALBUQUERQUE
      AND OTHER STATIONS.  A FINAL VERSION WITH ADDITIONAL DATA IS
      ISSUED ABOUT 10 MINUTES AFTER THE HOUR.

NMZ501-503-504-510>518-220600-
NORTHWEST PLATEAU/NORTHCENTRAL MOUNTAINS

CITY           SKY/WX    TMP DP  RH WIND       PRES   REMARKS
FARMINGTON     FAIR      70  33  25 SW15      29.87R
LOS ALAMOS     FAIR      67  32  26 SW10      30.04R
SANTA FE       MOCLDY    64  35  34 S5        29.99R
TAOS           FAIR      58  30  34 SE9       30.05R
ANGEL FIRE     FAIR      52  30  43 SW12      30.12R

$$
NMZ402-403-502-505>509-220600-
WESTCENTRAL MOUNTAINS/SOUTHWEST MOUNTAINS

CITY           SKY/WX    TMP DP  RH WIND       PRES   REMARKS
GALLUP         FAIR      63  37  38 S9        29.98R
GRANTS         FAIR      56  32  39 CALM      30.02S
SILVER CITY    FAIR      58  35  41 NW5       30.01R

$$
NMZ407-409-411-412-220600-
SOUTHERN DESERTS

CITY           SKY/WX    TMP DP  RH WIND       PRES   REMARKS
DEMING         FAIR      68  41  37 S3        29.93R
LAS CRUCES     FAIR      69  39  33 W8        29.95R
HOLLOMAN AFB   FAIR      74  41  30 S10       29.92R
ALAMOGORDO     FAIR      79  39  24 S10       29.92R
T OR C         FAIR      73  38  27 S7        29.93R

$$
NMZ519>523-220600-
CENTRAL VALLEYS/CENTRAL HIGHLANDS

CITY           SKY/WX    TMP DP  RH WIND       PRES   REMARKS
ALBUQUERQUE    FAIR      70  36  28 SE13      29.94R
DOUBLE EAGLE   FAIR      64  35  34 SW9       29.97R
CLINES CORNERS FAIR      61  37  41 SW14      30.08R
BELEN          FAIR      69  35  28 S6        29.93S
SOCORRO        FAIR      68  35  29 NE5       29.92S

$$
NMZ524>526-539-540-220600-
SOUTHCENTRAL MOUNTAINS

CITY           SKY/WX    TMP DP  RH WIND       PRES   REMARKS
RUIDOSO        MOCLDY    64  41  42 S5        30.13S

$$
NMZ527>531-220600-
NORTHEAST HIGHLANDS/NORTHEAST PLAINS

CITY           SKY/WX    TMP DP  RH WIND       PRES   REMARKS
LAS VEGAS      FAIR      64  37  36 S17       30.03S
RATON          FAIR      58  30  34 SW3       29.95S
CLAYTON        FAIR      63  46  54 SW12      29.90S

$$
NMZ532>537-220600-
EASTCENTRAL PLAINS

CITY           SKY/WX    TMP DP  RH WIND       PRES   REMARKS
SANTA ROSA     FAIR      73  42  33 SW8       29.91S
TUCUMCARI      FAIR      75  41  29 SW13      29.85S
CANNON AFB     PTCLDY    72  49  44 S15       29.95R
CLOVIS AIRPORT FAIR      73  51  46 S15       29.95R

$$
NMZ028-029-538-220600-
SOUTHEAST PLAINS

CITY           SKY/WX    TMP DP  RH WIND       PRES   REMARKS
ROSWELL        FAIR      77  42  28 S9        29.89R
ARTESIA        FAIR      77  45  31 SE10      29.89R
CARLSBAD       CLOUDY    82  57  42 S15       29.88R
HOBBS          FAIR      79  61  53 S17G25    29.93R


$$




USA.gov is the U.S. government's official web portal to all federal, state and local government web resources and services.